Regional Weather Roundup
Issued by NWS Cleveland, OH

Home | Current Version | Previous Version | Text Only | Print | Product List | Glossary Off
Versions: 1 2 3 4 5 6 7 8 9 10 11 12 13 14 15 16 17 18 19 20 21 22 23 24 25 26 27 28 29 30 31 32 33 34 35 36 37 38 39 40 41 42 43 44 45 46 47 48 49 50

000
ASUS41 KCLE 261610
RWRCLE
OHIO REGIONAL WEATHER ROUNDUP
NATIONAL WEATHER SERVICE WILMINGTON, OH
1200 PM EDT THU MAY 26 2016

NOTE: "FAIR" INDICATES FEW OR NO CLOUDS BELOW 12,000 FEET WITH NO
SIGNIFICANT WEATHER AND/OR OBSTRUCTIONS TO VISIBILITY.

OHZ001>008-015>018-024>027-034-035-043-044-261700-
   NORTHWEST OHIO

CITY           SKY/WX    TMP DP  RH WIND       PRES   REMARKS
DEFIANCE       PTSUNNY   79  63  57 SW9       29.99F
FINDLAY        FAIR      79  62  56 SW13      30.01S
TOLEDO EXPRESS FAIR      80  63  55 SW12      29.99S
TOLEDO EXEC    FAIR      80  64  58 SW13G18   30.00F
LIMA           PTSUNNY   77  64  64 SW9G20    30.02S
$$

OHZ009>014-019>023-028>033-038-089-261700-
   NORTHEAST OHIO

CITY           SKY/WX    TMP DP  RH WIND       PRES   REMARKS
CLE-HOPKINS    PTSUNNY   77  64  64 SW15G23   30.04F
CLE-LAKEFRONT  FAIR      81  64  56 S13G20    30.00F
CUY CO. ARPT   PTSUNNY   82  66  57 SW12      30.03S
LORAIN-ELYRIA  FAIR      78  63  59 S12       30.03S
ASHTABULA      FAIR      79  63  57 SW15      30.04S
AKRON-CANTON   PTSUNNY   78  63  59 SW15      30.07R
WOOSTER        FAIR      76  62  62 S17       30.07R
MANSFIELD      FAIR      76  64  66 S12       30.06R
YOUNGSTOWN     PTSUNNY   78  62  57 SW16G26   30.06S
$$

OHZ042-051>053-060>062-070>072-077>081-261700-
  SOUTHWEST OHIO

CITY           SKY/WX    TMP DP  RH WIND       PRES   REMARKS
CINC-COVINGTON PTSUNNY   76  65  68 S10       30.08S
CINC-LUNKEN    PTSUNNY   77  65  66 S13       30.08S
HAMILTON       PTSUNNY   78  65  63 SW9       30.08S
DAYTON         CLOUDY    74  65  73 SW12      30.07S
WRIGHT-PAT AFB CLOUDY    74  66  76 S10       30.06S
DAYTON GENERAL PTSUNNY   75  63  66 SW10G20   30.07R
WILMINGTON     CLOUDY    75  65  70 SW16      30.07S
$$

OHZ036-037-039>041-045>050-054>059-063>069-073>076-082>088-261700-
  CENTRAL AND SOUTHEAST OHIO

CITY           SKY/WX    TMP DP  RH WIND       PRES   REMARKS
COLUMBUS       FAIR      77  63  61 SW15G21   30.05F
OSU AIRPORT    PTSUNNY   77  64  64 SW17      30.05S
BOLTON FIELD   PTSUNNY   75  66  73 SW15      30.07R
RICKENBACK AFB PTSUNNY   76  64  65 W15G21    30.06S
NEWARK         FAIR      78  64  61 S12       30.05F
MARION           N/A    N/A N/A N/A MISG      30.05R
LANCASTER      FAIR      78  64  61 S14       30.07F
ZANESVILLE     FAIR      79  65  62 SW9       30.08S
NEW PHILLY     FAIR      78  62  57 S6        30.07F
$$



USA.gov is the U.S. government's official web portal to all federal, state and local government web resources and services.